User: anonymous   Login
Location: Unspecified
(0.0000°N, 0.0000°E)
Time: 15:03:20
(UTC+00:00)
Language:

PAKSAT 1R - Orbit

View from above orbital plane
View from above orbital plane
View from above satellite
View from above satellite

Ground track
Ground track

The orbit data is extracted from the following two-line orbital elements,

1 37779U 11042A   16038.21583612  .00000147  00000-0  00000+0 0  9998
2 37779   0.0301 243.7232 0002493  44.7585 323.9694  1.00273741 16348
Epoch (UTC): 07 February 2016 05:10:48
Eccentricity: 0.0002493
inclination: 0.0301°
perigee height: 35775 km
apogee height: 35796 km
right ascension of ascending node: 243.7232°
argument of perigee: 44.7585°
revolutions per day: 1.00273741
mean anomaly at epoch: 323.9694°
orbit number at epoch: 1634

The dashed part of the orbit path shows where the satellite is in the earth's shadow,  

DLR